Date String (YYYY-MM-DD hh:mm:ss) UTC,Instrument flags,absolute air pressure of the measurement (hPa),sample flow rate (lpm),inlet stack bypass flow (lpm),air temperature of the measurement (°C),ambient temperature measured by the external sensor (°C),aerosol sample conditioner tube jacket temperature (°C),OPC LED temperature (°C),internal box temperature (°C),relative humidity of the measurement (%),span deviation,mass concentration of particles derived from Lorenz-Mie calculation of OPC scattering (μg/m³),mass concentration of particles derived from Lorenz-Mie calculation of OPC scattering (μg/m³),mass concentration of particles derived from Lorenz-Mie calculation of OPC scattering (μg/m³)
DateTimeUTC,F1_M11,P_M11,Q1_M11,Q2_M11,T1_M11,T2_M11,T3_M11,T4_M11,T5_M11,U1_M11,ZSPAN_M11,X0_M11,X2_M11,X1_M11
2023-09-19 17:00:00,SystemResetWarning,0829.1,5.00,000.00,028.3,027.3,000.0,036.5,030.0,19.5,0000.0,0005.09,0002.01,0001.54
2023-09-19 17:01:00,SystemResetWarning,0829.0,4.99,000.00,028.3,026.7,000.0,036.5,029.9,19.7,0000.0,0004.98,0001.97,0001.53
2023-09-19 17:02:00,SystemResetWarning,0828.9,5.00,000.00,028.2,025.0,000.0,036.4,029.4,20.3,0000.0,0004.82,0001.92,0001.51
2023-09-19 17:03:00,SystemResetWarning,0829.0,5.02,000.00,028.0,024.4,000.0,036.4,029.3,19.8,0000.0,0004.52,0001.85,0001.50
2023-09-19 17:04:00,SystemResetWarning,0828.9,5.01,000.00,028.0,024.6,000.0,036.4,029.3,19.8,0000.0,0004.53,0001.87,0001.49
2023-09-19 17:05:00,SystemResetWarning,0828.9,5.00,000.00,027.9,024.9,000.0,036.4,029.2,21.1,0000.0,0005.13,0001.93,0001.50
2023-09-19 17:06:00,SystemResetWarning,0829.0,5.00,000.00,027.9,025.3,000.0,036.3,029.3,21.6,0000.0,0005.12,0001.94,0001.50
2023-09-19 17:07:00,SystemResetWarning,0828.9,4.99,000.00,027.9,025.6,000.0,036.3,029.3,21.7,0000.0,0005.28,0001.97,0001.50
2023-09-19 17:08:00,SystemResetWarning,0828.9,4.99,000.00,027.9,025.9,000.0,036.3,029.4,22.0,0000.0,0006.02,0001.98,0001.50
2023-09-19 17:09:00,SystemResetWarning,0829.0,5.00,000.00,028.0,026.2,000.0,036.3,029.5,22.1,0000.0,0005.09,0002.00,0001.49
2023-09-19 17:10:00,SystemResetWarning,0828.9,5.01,000.00,028.0,026.4,000.0,036.3,029.6,21.8,0000.0,0004.25,0001.98,0001.49
2023-09-19 17:11:00,SystemResetWarning,0828.9,5.01,000.00,028.0,026.6,000.0,036.3,029.6,20.8,0000.0,0004.19,0001.97,0001.49
2023-09-19 17:12:00,SystemResetWarning,0828.9,5.00,000.00,028.1,026.8,000.0,036.4,029.7,20.8,0000.0,0004.09,0001.94,0001.48
2023-09-19 17:13:00,SystemResetWarning,0828.9,5.00,000.00,028.1,026.9,000.0,036.4,029.7,21.5,0000.0,0004.06,0001.93,0001.49
2023-09-19 17:14:00,SystemResetWarning,0828.9,4.99,000.00,028.1,027.0,000.0,036.4,029.8,21.8,0000.0,0004.13,0001.96,0001.50
2023-09-19 17:15:00,SystemResetWarning,0829.0,4.99,000.00,028.2,027.1,000.0,036.4,029.9,21.3,0000.0,0004.46,0002.00,0001.50
2023-09-19 17:16:00,SystemResetWarning,0829.0,5.00,000.00,028.2,026.4,000.0,036.4,029.8,21.1,0000.0,0003.82,0001.94,0001.49
2023-09-19 17:17:00,SystemResetWarning,0828.9,5.00,000.00,028.1,024.9,000.0,036.4,029.2,20.9,0000.0,0003.70,0001.91,0001.49
2023-09-19 17:18:00,SystemResetWarning,0828.8,5.01,000.00,028.0,024.4,000.0,036.3,029.2,19.8,0000.0,0004.31,0001.89,0001.50
2023-09-19 17:19:00,SystemResetWarning,0828.8,5.01,000.00,027.9,024.6,000.0,036.3,029.2,20.5,0000.0,0003.96,0001.90,0001.51
2023-09-19 17:20:00,SystemResetWarning,0828.8,4.99,000.00,027.9,024.9,000.0,036.3,029.2,21.5,0000.0,0003.78,0001.91,0001.51
2023-09-19 17:21:00,SystemResetWarning,0828.8,5.00,000.00,027.8,025.3,000.0,036.3,029.3,20.8,0000.0,0003.80,0001.93,0001.51
2023-09-19 17:22:00,SystemResetWarning,0828.8,5.00,000.00,027.9,025.6,000.0,036.3,029.3,21.0,0000.0,0004.39,0001.90,0001.51
2023-09-19 17:23:00,SystemResetWarning,0828.7,5.00,000.00,027.9,025.9,000.0,036.3,029.4,20.3,0000.0,0005.20,0001.94,0001.51
2023-09-19 17:24:00,SystemResetWarning,0828.8,5.00,000.00,027.9,026.2,000.0,036.3,029.5,19.9,0000.0,0005.35,0001.95,0001.51
2023-09-19 17:25:00,SystemResetWarning,0828.8,5.00,000.00,027.9,026.4,000.0,036.3,029.6,19.7,0000.0,0005.50,0001.97,0001.50
2023-09-19 17:26:00,SystemResetWarning,0828.8,5.00,000.00,028.0,026.6,000.0,036.3,029.6,20.1,0000.0,0005.27,0001.93,0001.50
2023-09-19 17:27:00,SystemResetWarning,0828.8,5.01,000.00,028.0,026.8,000.0,036.3,029.7,20.3,0000.0,0005.16,0001.91,0001.50
2023-09-19 17:28:00,SystemResetWarning,0828.8,5.00,000.00,028.1,026.9,000.0,036.3,029.7,19.3,0000.0,0006.18,0001.90,0001.50
2023-09-19 17:29:00,SystemResetWarning,0828.8,4.99,000.00,028.1,026.7,000.0,036.3,029.7,18.9,0000.0,0005.86,0001.89,0001.49
2023-09-19 17:30:00,SystemResetWarning,0828.7,4.99,000.00,028.1,025.2,000.0,036.3,029.3,18.9,0000.0,0005.66,0001.90,0001.49
2023-09-19 17:31:00,SystemResetWarning,0828.7,5.00,000.00,027.9,024.3,000.0,036.3,029.1,18.0,0000.0,0005.57,0001.87,0001.50
2023-09-19 17:32:00,SystemResetWarning,0828.7,5.01,000.00,027.9,024.5,000.0,036.2,029.2,18.4,0000.0,0005.63,0001.85,0001.50
2023-09-19 17:33:00,SystemResetWarning,0828.7,5.00,000.00,027.8,024.8,000.0,036.2,029.1,18.6,0000.0,0005.31,0001.85,0001.50
2023-09-19 17:34:00,SystemResetWarning,0828.7,5.00,000.00,027.8,025.2,000.0,036.2,029.2,19.1,0000.0,0004.33,0001.84,0001.51
2023-09-19 17:35:00,SystemResetWarning,0828.7,5.01,000.00,027.8,025.5,000.0,036.2,029.3,18.5,0000.0,0004.29,0001.84,0001.52
2023-09-19 17:36:00,SystemResetWarning,0828.7,5.00,000.00,027.8,025.9,000.0,036.2,029.3,18.2,0000.0,0004.33,0001.86,0001.52
2023-09-19 17:37:00,SystemResetWarning,0828.7,4.99,000.00,027.8,026.1,000.0,036.2,029.4,18.0,0000.0,0004.29,0001.86,0001.53
2023-09-19 17:38:00,SystemResetWarning,0828.8,4.99,000.00,027.9,026.4,000.0,036.2,029.5,18.4,0000.0,0004.38,0001.88,0001.53
2023-09-19 17:39:00,SystemResetWarning,0828.8,5.00,000.00,027.9,026.6,000.0,036.2,029.6,18.2,0000.0,0003.85,0001.95,0001.54
2023-09-19 17:40:00,SystemResetWarning,0828.8,5.01,000.00,028.0,026.8,000.0,036.3,029.6,17.6,0000.0,0003.28,0001.99,0001.55
2023-09-19 17:41:00,SystemResetWarning,0828.8,5.01,000.00,028.0,026.9,000.0,036.3,029.7,17.3,0000.0,0003.73,0001.98,0001.56
2023-09-19 17:42:00,SystemResetWarning,0828.9,4.99,000.00,028.0,026.5,000.0,036.3,029.6,17.3,0000.0,0004.05,0002.01,0001.56
2023-09-19 17:43:00,SystemResetWarning,0828.8,4.99,000.00,028.0,024.9,000.0,036.2,029.2,16.8,0000.0,0004.14,0002.07,0001.58
2023-09-19 17:44:00,SystemResetWarning,0828.8,5.00,000.00,027.8,024.2,000.0,036.2,029.1,16.6,0000.0,0004.34,0002.12,0001.59
2023-09-19 17:45:00,SystemResetWarning,0828.8,5.01,000.00,027.8,024.4,000.0,036.2,029.1,17.2,0000.0,0004.59,0002.15,0001.59
2023-09-19 17:46:00,SystemResetWarning,0828.8,4.99,000.00,027.7,024.7,000.0,036.2,029.1,17.9,0000.0,0004.66,0002.17,0001.59
2023-09-19 17:47:00,SystemResetWarning,0828.8,5.00,000.00,027.7,025.1,000.0,036.2,029.1,18.4,0000.0,0004.62,0002.13,0001.60
2023-09-19 17:48:00,SystemResetWarning,0828.9,5.00,000.00,027.7,025.5,000.0,036.2,029.2,18.2,0000.0,0004.89,0002.13,0001.61
2023-09-19 17:49:00,SystemResetWarning,0828.9,5.01,000.00,027.7,025.8,000.0,036.2,029.3,18.1,0000.0,0004.87,0002.13,0001.63
2023-09-19 17:50:00,SystemResetWarning,0828.9,5.00,000.00,027.8,026.1,000.0,036.2,029.4,18.6,0000.0,0004.95,0002.13,0001.63
2023-09-19 17:51:00,SystemResetWarning,0829.0,5.00,000.00,027.8,026.3,000.0,036.2,029.4,18.9,0000.0,0005.09,0002.12,0001.62
2023-09-19 17:52:00,SystemResetWarning,0829.0,4.99,000.00,027.9,026.5,000.0,036.2,029.5,18.2,0000.0,0004.75,0002.11,0001.62
2023-09-19 17:53:00,SystemResetWarning,0829.0,4.99,000.00,027.9,026.7,000.0,036.2,029.5,18.2,0000.0,0004.33,0002.09,0001.62
2023-09-19 17:54:00,SystemResetWarning,0828.9,4.99,000.00,027.9,026.8,000.0,036.2,029.6,18.0,0000.0,0004.24,0002.09,0001.63
2023-09-19 17:55:00,SystemResetWarning,0829.0,5.00,000.00,028.0,027.0,000.0,036.2,029.7,17.6,0000.0,0004.24,0002.08,0001.63
2023-09-19 17:56:00,SystemResetWarning,0828.9,4.99,000.00,028.0,026.9,000.0,036.3,029.7,17.4,0000.0,0003.86,0002.06,0001.64
2023-09-19 17:57:00,SystemResetWarning,0828.9,5.00,000.00,028.0,025.5,000.0,036.2,029.4,17.8,0000.0,0003.92,0002.05,0001.65
2023-09-19 17:58:00,SystemResetWarning,0829.0,5.00,000.00,027.9,024.1,000.0,036.2,029.0,17.6,0000.0,0003.88,0002.06,0001.65
2023-09-19 17:59:00,SystemResetWarning,0829.0,5.00,000.00,027.8,024.1,000.0,036.1,029.1,18.1,0000.0,0004.10,0002.09,0001.66
